This demonstration page uses our WeatherBlox Daily Observations layout. Learn more.

Left ArrowRight Arrow

38.83388, -104.82136

Hourly Observations for March 3, 2018

Temp ( °F °C ) Dew Point ( °F °C ) Humidity (%) Winds ( mph kmh ) Pressure ( in mb ) Visibility ( mi km ) Precip ( " mm )
12:58 am 00:58 Clear 46 7.5 6 -14.6 19 19 W 5 7 29.51 999 10 16 0.00 0.00
1:58 am 01:58 Clear 47 8.3 0 -17.8 14 14 Calm 29.51 999 10 16 0.00 0.00
2:58 am 02:58 Clear 49 9.6 -3 -19.3 11 11 SE 14 22 29.47 998 10 16 0.00 0.00
3:58 am 03:58 Clear 49 9.2 -3 -19.2 12 12 SE 22 35 29.46 998 10 16 0.00 0.00
4:58 am 04:58 Clear 44 6.5 3 -16.3 18 18 Calm 29.49 999 10 16 0.00 0.00
5:58 am 05:58 Clear 45 7.2 0 -17.8 15 15 Calm 29.54 1000 10 16 0.00 0.00
6:58 am 06:58 Sunny 48 8.9 -3 -19.4 12 12 SE 5 7 29.53 1000 10 16 0.00 0.00
7:58 am 07:58 Sunny 52 11.2 0 -18 11 11 SE 12 19 29.54 1000 10 16 0.00 0.00
8:58 am 08:58 Sunny 55 12.5 -1 -18.4 10 10 SSE 16 26 29.49 999 10 16 0.00 0.00
9:58 am 09:58 Sunny 57 13.8 -2 -19 9 9 SSE 16 26 29.47 998 10 16 0.00 0.00
10:30 am 10:30 Sunny 57 14 -4 -20 8 8 S 17 28 29.47 998 10 16 0.00 0.00
10:33 am 10:33 Sunny 57 14 -4 -20 8 8 SSE 15 24 29.49 999 10 16 0.00 0.00
10:50 am 10:50 Sunny 59 15 -4 -20 7 7 S 25 41 29.46 998 10 16 0.00 0.00
10:54 am 10:54 Sunny 59 15 -4 -20 7 7 SE 15 24 29.47 998 10 16 0.00 0.00
10:58 am 10:58 Sunny 58 14.6 -3 -19.4 8 8 ESE 14 22 29.47 998 10 16 0.00 0.00
11:39 am 11:39 Sunny 61 16 -6 -21 6 6 S 15 24 29.46 998 10 16 0.00 0.00
11:58 am 11:58 Sunny 61 15.9 -4 -20.1 7 7 S 16 26 29.46 998 10 16 0.00 0.00
12:23 pm 12:23 Sunny 61 16 -6 -21 6 6 S 13 20 29.43 997 10 16 0.00 0.00
12:34 pm 12:34 Sunny 61 16 -4 -20 7 7 S 17 28 29.43 997 10 16 0.00 0.00
12:43 pm 12:43 Sunny 61 16 -2 -19 7 7 S 21 33 29.41 996 10 16 0.00 0.00
12:58 pm 12:58 Sunny 62 16.7 -2 -19 7 7 SSE 17 28 29.42 996 10 16 0.00 0.00
1:00 pm 13:00 Sunny 63 17 -2 -19 7 7 ESE 16 26 29.42 996 10 16 0.00 0.00
1:24 pm 13:24 Sunny 61 16 -4 -20 7 7 S 16 26 29.41 996 10 16 0.00 0.00
1:26 pm 13:26 Sunny 61 16 -2 -19 7 7 SSE 16 26 29.39 995 10 16 0.00 0.00
1:58 pm 13:58 Sunny 62 16.6 -1 -18.5 8 8 SE 21 33 29.39 995 10 16 0.00 0.00
2:31 pm 14:31 Sunny 63 17 -2 -19 7 7 S 17 28 29.39 995 10 16 0.00 0.00
2:35 pm 14:35 Sunny 63 17 -2 -19 7 7 SSE 22 35 29.39 995 10 16 0.00 0.00
2:58 pm 14:58 Sunny 61 16.2 -1 -18.6 8 8 SSE 22 35 29.37 995 10 16 0.00 0.00
3:16 pm 15:16 Sunny 61 16 -2 -19 7 7 S 14 22 29.39 995 10 16 0.00 0.00
3:58 pm 15:58 Sunny 59 14.9 -1 -18.1 9 9 ESE 7 11 29.40 996 10 16 0.00 0.00
4:58 pm 16:58 Sunny 58 14.4 -1 -18.2 9 9 SSE 12 19 29.43 997 10 16 0.00 0.00
5:58 pm 17:58 Clear 55 12.8 0 -18 10 10 S 7 11 29.44 997 10 16 0.00 0.00
6:58 pm 18:58 Clear 53 11.5 0 -17.7 11 11 SSW 3 6 29.44 997 10 16 0.00 0.00
7:58 pm 19:58 Clear 49 9.2 0 -17.7 13 13 W 7 11 29.45 997 10 16 0.00 0.00
8:58 pm 20:58 Clear 51 10.3 -3 -19.4 11 11 W 9 15 29.44 997 10 16 0.00 0.00
9:58 pm 21:58 Clear 49 9.5 -3 -19.7 11 11 SE 8 13 29.40 996 10 16 0.00 0.00
10:58 pm 22:58 Clear 51 10.4 -3 -19.4 10 10 SSE 16 26 29.38 995 10 16 0.00 0.00
11:12 pm 23:12 Clear 46 8 -2 -19 13 13 SSE 18 30 29.38 995 10 16 0.00 0.00
11:58 pm 23:58 Clear 50 10 -2 -19.1 11 11 SE 16 26 29.34 994 10 16 0.00 0.00

Powered by AerisWeather